Volver al catálogo

H-2A R/B

ActivoHEO
NORAD 49337·ROCKET BODY·🇯🇵 Japan

Lanzado Oct 26, 2021 desde Tanegashima Space Center

Loading…

Próximos Pases (próximas 24 horas)

TLE

ActualizadoSource: Space-Track

Época: Sep 12, 2026, 11:51 UTC

1 49337U 21096B   26255.49379692  .00005615  00000-0  90095-3 0  9996
2 49337  31.7823  95.4811 6771843 218.0794  66.0416  2.95534750 45560

Sigue H-2A R/B en tiempo real con AllMySat

Download on the App Store